Location: ???????
(55.3754°N, 39.3545°E)
Time: 07:07:12
(UTC+00:00)

Cosmos 1697 Rocket - Pass Details

Date: 14 April 2026
Orbit: 832 x 842 km, 71.0° (Epoch: 12 May)

Event Time Altitude Azimuth Distance (km) Brightness Sun altitude
Rises 22:25:56 0° 325° (NW) 3,407 6.4 -23.6°
Reaches altitude 10° 22:28:24 10° 323° (NW) 2,467 5.5 -23.5°
Maximum altitude 22:33:59 65° 243° (WSW) 923 2.6 -23.3°
Enters shadow 22:34:53 56° 198° (SSW) 994 2.7 -23.2°
